Simultaneous Nadir Overpasses (SNOs) Predictions

Prediction of SNOs between AQUA and GOES-15 Satellite Orbit:

Table of predicted SNOs for the next 14.0 days since TLE Epoch: 11/2/2012
Index Date Time (AQUA) AQUA Lat,Lon GOES-15 Lat,Lon Distance(km) Time Diff (sec)
1 11/02/2012 22:40:38 -0.34,-136.31 -0.07,-134.96 153.54 80
2 11/04/2012 22:28:21 0.25,-133.33 -0.07,-134.89 176.92 80
3 11/05/2012 10:49:36 0.78,-138.49 0.05,-134.91 406.08 80
4 11/07/2012 10:37:17 0.20,-135.50 0.05,-134.83 75.42 80
5 11/09/2012 10:24:57 -0.41,-132.50 0.05,-134.75 255.35 80
6 11/09/2012 22:46:19 -0.69,-137.68 -0.02,-134.67 342.63 80
7 11/11/2012 22:33:58 -0.03,-134.69 -0.03,-134.58 12.01 80
8 11/13/2012 22:21:34 0.54,-131.67 -0.04,-134.48 318.77 80
9 11/14/2012 10:42:47 0.51,-136.82 0.01,-134.50 263.88 80
10 11/16/2012 10:30:22 -0.10,-133.81 0.02,-134.39 66.40 80




NCC Satellite Simultaneous Nadir Overpasses (SNOs) Prediction Service
